This demonstration page uses our WeatherBlox Daily Observations layout. Learn more.

Left ArrowRight Arrow

34.74481, -87.66753

Hourly Observations for December 7, 2018

Temp ( °F °C ) Dew Point ( °F °C ) Humidity (%) Winds ( mph kmh ) Pressure ( in mb ) Visibility ( mi km ) Precip ( " mm )
12:06 am 00:06 Cloudy 45 7.2 32 0 61 61 Calm 30.39 1029 10 16 0.00 0.00
12:53 am 00:53 Cloudy 45 7.2 30 -1.1 56 56 NW 5 7 30.38 1029 10 16 0.00 0.00
1:53 am 01:53 Cloudy 45 7.2 32 0 61 61 NNW 6 9 30.39 1029 10 16 0.00 0.00
2:53 am 02:53 Cloudy with Light Rain 43 6.1 35 1.7 74 74 N 5 7 30.40 1030 10 16 0.00 0.03
3:53 am 03:53 Cloudy with Light Rain 41 5 38 3.3 89 89 NW 3 6 30.42 1030 10 16 0.05 1.27
4:53 am 04:53 Cloudy 41 5 39 3.9 93 93 Calm 30.42 1030 10 16 0.01 0.25
5:53 am 05:53 Cloudy with Light Rain 41 5 39 3.9 93 93 Calm 30.44 1031 9 14 0.01 0.25
6:29 am 06:29 Cloudy with Light Rain 41 5 39 3.9 93 93 Calm 30.48 1032 6 10 0.02 0.51
6:36 am 06:36 Cloudy with Light Rain 41 5 39 3.9 93 93 Calm 30.48 1032 7 11 0.02 0.51
6:53 am 06:53 Cloudy with Light Rain 41 5 39 3.9 93 93 Calm 30.45 1031 10 16 0.03 0.76
7:32 am 07:32 Cloudy with Light Rain 41 5 39 3.9 93 93 Calm 30.48 1032 10 16 0.01 0.25
7:53 am 07:53 Cloudy with Light Rain 41 5 39 3.9 93 93 Calm 30.48 1032 10 16 0.01 0.25
8:37 am 08:37 Cloudy with Light Rain 41 5 39 3.9 93 93 Calm 30.50 1033 10 16 0.02 0.51
8:53 am 08:53 Cloudy with Light Rain 42 5.6 39 3.9 89 89 ESE 3 6 30.48 1032 10 16 0.02 0.51
9:20 am 09:20 Cloudy with Light Rain 42 5.6 39 3.9 89 89 Calm 30.53 1034 10 16 0.02 0.51
9:53 am 09:53 Cloudy with Light Rain 42 5.6 39 3.9 89 89 Calm 30.50 1033 9 14 0.03 0.76
10:41 am 10:41 Cloudy with Light Rain 43 6.1 40 4.4 89 89 ENE 3 6 30.48 1032 10 16 0.01 0.25
10:53 am 10:53 Cloudy 43 6.1 40 4.4 89 89 ENE 5 7 30.47 1032 10 16 0.01 0.25
11:24 am 11:24 Cloudy 43 6.1 40 4.4 89 89 E 6 9 30.45 1031 10 16 0.00 0.00
11:53 am 11:53 Cloudy 44 6.7 39 3.9 83 83 Calm 30.43 1030 10 16 0.00 0.00
12:06 pm 12:06 Cloudy 44 6.7 40 4.4 85 85 E 6 9 30.42 1030 10 16 0.00 0.00
12:46 pm 12:46 Cloudy 44 6.7 39 3.9 83 83 ENE 5 7 30.39 1029 10 16 0.00 0.00
12:53 pm 12:53 Cloudy 44 6.7 39 3.9 83 83 Calm 30.41 1030 10 16 0.00 0.00
1:53 pm 13:53 Cloudy 44 6.7 40 4.4 85 85 ESE 3 6 30.40 1029 10 16 0.00 0.00
2:53 pm 14:53 Cloudy 44 6.7 40 4.4 85 85 ENE 3 6 30.40 1029 10 16 0.00 0.00
3:53 pm 15:53 Cloudy with Mist and Fog 44 6.7 41 5 89 89 E 5 7 30.39 1029 6 10 0.00 0.00
4:08 pm 16:08 Cloudy with Mist and Fog 44 6.7 41 5 89 89 ENE 5 7 30.39 1029 5 8 0.00 0.00
4:17 pm 16:17 Cloudy 43 6.1 41 5 93 93 ENE 5 7 30.39 1029 7 11 0.00 0.00
4:33 pm 16:33 Cloudy 43 6.1 41 5 93 93 ENE 5 7 30.39 1029 7 11 0.00 0.00
4:50 pm 16:50 Cloudy 43 6 41 5 93 93 ENE 3 6 30.39 1029 7 11 0.00 0.00
4:53 pm 16:53 Cloudy 43 6.1 41 5 93 93 ENE 3 6 30.41 1030 7 11 0.00 0.00
5:10 pm 17:10 Cloudy 43 6.1 41 5 93 93 E 3 6 30.42 1030 9 14 0.00 0.00
5:46 pm 17:46 Cloudy 43 6.1 41 5 93 93 E 5 7 30.39 1029 8 13 0.00 0.00
5:53 pm 17:53 Cloudy 43 6.1 41 5 93 93 E 3 6 30.40 1030 7 11 0.00 0.00
6:09 pm 18:09 Cloudy with Mist and Fog 43 6.1 41 5 93 93 E 3 6 30.39 1029 6 10 0.00 0.00
6:16 pm 18:16 Cloudy with Mist and Fog 43 6.1 41 5 93 93 E 3 6 30.39 1029 6 10 0.00 0.00
6:53 pm 18:53 Cloudy with Mist and Fog 43 6.1 41 5 93 93 E 5 7 30.39 1029 5 8 0.00 0.00
7:04 pm 19:04 Cloudy with Mist and Fog 43 6.1 42 5.6 97 97 ENE 3 6 30.39 1029 5 8 0.00 0.00
7:39 pm 19:39 Cloudy 44 6.7 42 5.6 93 93 ENE 3 6 30.39 1029 7 11 0.00 0.00
7:53 pm 19:53 Cloudy 44 6.7 42 5.6 93 93 ENE 5 7 30.40 1030 8 13 0.00 0.00
8:53 pm 20:53 Cloudy 44 6.7 41 5 89 89 ENE 5 7 30.41 1030 9 14 0.00 0.00
9:19 pm 21:19 Cloudy 43 6.1 41 5 93 93 ENE 5 7 30.42 1030 10 16 0.00 0.00
9:53 pm 21:53 Cloudy with Light Rain 43 6.1 40 4.4 89 89 NE 6 9 30.41 1030 10 16 0.00 0.03
10:30 pm 22:30 Cloudy 43 6.1 40 4.4 89 89 NE 7 11 30.39 1029 10 16 0.00 0.03
10:38 pm 22:38 Cloudy 43 6.1 40 4.4 89 89 NE 7 11 30.39 1029 10 16 0.00 0.03
10:53 pm 22:53 Cloudy 43 6.1 40 4.4 89 89 ENE 7 11 30.40 1030 10 16 0.00 0.03
11:44 pm 23:44 Cloudy 43 6.1 40 4.4 89 89 NE 7 11 30.39 1029 10 16 0.00 0.03
11:53 pm 23:53 Cloudy 43 6.1 40 4.4 89 89 ENE 5 7 30.40 1030 9 14 0.01 0.25

Powered by AerisWeather